Jackson, WY

2:44 PM MST on December 06, 2019 (GMT -0700)
Jackson Hole

Weather History for KJAC - October, 2019

Change the Weather History Date:

Thursday, October 10, 2019

  Actual Average Record
Temperature  
Mean Temperature 21 °F -  
Max Temperature 30 °F 56 °F 77 °F (1996)
Min Temperature 10 °F 24 °F 11 °F (1985)
Degree Days  
Heating Degree Days 44    
Moisture  
Dew Point 11 °F    
Average Humidity 70    
Maximum Humidity 89    
Minimum Humidity 41    
Precipitation  
Precipitation 0.00 in - - ()
Sea Level Pressure  
Sea Level Pressure 30.32 in    
Wind  
Wind Speed 8 mph ()    
Max Wind Speed 18 mph    
Max Gust Speed 23 mph    
Visibility 8.4 miles    
Events Snow    
Averages and records for this station are not official NWS values.
T = Trace of Precipitation, MM = Missing Value Source: Averaged Metar Reports

Daily Weather History Graph

Daily Weather History Graph

Search for Another Location

Airport or City:

Astronomy

Oct. 10, 2019 Rise Set
Actual Time 7:30 AM MDT 6:48 PM MDT
Civil Twilight 7:02 AM MDT 7:16 PM MDT
Nautical Twilight 6:28 AM MDT 7:50 PM MDT
Astronomical Twilight 5:55 AM MDT 8:23 PM MDT
Moon 5:59 PM MDT (10/10) 4:09 AM MDT (10/10)
Length of Visible Light 12h 14m
Length of Day
11h 17m
Waxing Gibbous, 91% of the Moon is Illuminated
Oct 10
Waxing Gibbous
Oct 13
Full
Oct 21
Last Quarter
Oct 27
New
Nov 4
First Quarter

Hourly Weather History & Observations

Time (MDT) Temp. Windchill Dew Point Humidity Pressure Visibility Wind Dir Wind Speed Gust Speed Precip Events Conditions
12:10 AM 21.2 °F 9.5 °F 17.6 °F 86% 30.07 in 2.0 mi North 11.5 mph - 0.00 in Snow Light Snow
12:18 AM 21.2 °F 10.9 °F 17.6 °F 86% 30.07 in 1.8 mi NNE 9.2 mph - 0.00 in Snow Light Snow
12:28 AM 21.2 °F 10.9 °F 17.6 °F 86% 30.08 in 2.0 mi NNE 9.2 mph - 0.00 in Snow Light Snow
12:42 AM 21.2 °F 11.7 °F 17.6 °F 86% 30.08 in 2.5 mi NNE 8.1 mph - 0.00 in Snow Light Snow
12:56 AM 19.9 °F 9.3 °F 17.1 °F 89% 30.20 in 2.5 mi NNE 9.2 mph - 0.00 in Snow Light Snow
1:14 AM 19.4 °F 7.9 °F 15.8 °F 86% 30.08 in 4.0 mi NNE 10.4 mph - 0.00 in Snow Light Snow
1:45 AM 19.4 °F 7.9 °F 15.8 °F 86% 30.08 in 8.0 mi North 10.4 mph - 0.00 in Snow Light Snow
1:56 AM 19.0 °F 7.5 °F 14.0 °F 81% 30.22 in 9.0 mi NNE 10.4 mph - 0.00 in Snow Light Snow
2:14 AM 19.4 °F 7.9 °F 14.0 °F 80% 30.09 in 8.0 mi NNE 10.4 mph - 0.00 in Snow Light Snow
2:30 AM 17.6 °F 7.3 °F 12.2 °F 79% 30.10 in 9.0 mi NNE 8.1 mph - 0.00 in Snow Light Snow
2:56 AM 19.0 °F 9.0 °F 12.9 °F 77% 30.25 in 10.0 mi NNE 8.1 mph - 0.00 in   Overcast
3:56 AM 19.0 °F 6.1 °F 12.9 °F 77% 30.25 in 9.0 mi North 12.7 mph - 0.00 in   Overcast
4:56 AM 18.0 °F 4.8 °F 12.0 °F 78% 30.29 in 10.0 mi NNE 12.7 mph - N/A   Overcast
5:56 AM 15.1 °F 1.1 °F 9.0 °F 77% 30.33 in 10.0 mi North 12.7 mph - N/A   Partly Cloudy
6:56 AM 14.0 °F 1.2 °F 8.1 °F 77% 30.38 in 10.0 mi North 10.4 mph - N/A   Partly Cloudy
7:56 AM 12.9 °F -0.2 °F 8.1 °F 81% 30.42 in 10.0 mi NNE 10.4 mph - N/A   Clear
8:56 AM 16.0 °F 3.6 °F 9.0 °F 74% 30.41 in 10.0 mi NNE 10.4 mph - N/A   Clear
9:56 AM 19.9 °F 10.1 °F 10.0 °F 65% 30.40 in 10.0 mi NE 8.1 mph - N/A   Mostly Cloudy
10:56 AM 21.9 °F - 10.0 °F 60% 30.40 in 10.0 mi Calm Calm - N/A   Mostly Cloudy
11:56 AM 25.0 °F 19.3 °F 10.9 °F 55% 30.40 in 10.0 mi SSE 4.6 mph - N/A   Mostly Cloudy
12:56 PM 25.0 °F 19.3 °F 10.9 °F 55% 30.40 in 10.0 mi Variable 4.6 mph - N/A   Overcast
1:56 PM 27.0 °F 21.6 °F 10.9 °F 51% 30.39 in 10.0 mi SSW 4.6 mph - N/A   Overcast
2:56 PM 28.9 °F 21.9 °F 9.0 °F 43% 30.37 in 10.0 mi WNW 6.9 mph - N/A   Mostly Cloudy
3:56 PM 30.0 °F 19.1 °F 9.0 °F 41% 30.36 in 10.0 mi WNW 15.0 mph 19.6 mph N/A   Clear
4:56 PM 28.9 °F 16.5 °F 9.0 °F 43% 30.39 in 10.0 mi WNW 18.4 mph 23.0 mph N/A   Partly Cloudy
5:56 PM 27.0 °F 15.2 °F 8.1 °F 45% 30.43 in 10.0 mi WNW 15.0 mph - N/A   Clear
6:56 PM 24.1 °F 15.2 °F 8.1 °F 51% 30.48 in 10.0 mi WNW 8.1 mph - N/A   Clear
7:56 PM 19.0 °F 12.3 °F 7.0 °F 59% 30.52 in 10.0 mi SE 4.6 mph - N/A   Clear
8:56 PM 18.0 °F 11.1 °F 8.1 °F 65% 30.53 in 10.0 mi ESE 4.6 mph - N/A   Clear
9:56 PM 17.1 °F - 9.0 °F 71% 30.52 in 10.0 mi Calm Calm - N/A   Clear
10:56 PM 12.9 °F 1.6 °F 8.1 °F 81% 30.55 in 10.0 mi NNE 8.1 mph - N/A   Clear
11:56 PM 10.0 °F -0.9 °F 5.0 °F 80% 30.56 in 10.0 mi North 6.9 mph - N/A   Clear